Year,Month,Day,Hour,Minute,Value (Times are PST for temperature in C)
2022,10,02,00,00,16.20
2022,10,02,00,01,16.10
2022,10,02,00,02,16.10
2022,10,02,00,03,16.10
2022,10,02,00,04,16.10
2022,10,02,00,05,15.90
2022,10,02,00,06,15.90
2022,10,02,00,07,15.90
2022,10,02,00,08,15.80
2022,10,02,00,09,15.80
2022,10,02,00,10,15.80
2022,10,02,00,11,15.80
2022,10,02,00,12,15.80
2022,10,02,00,13,15.80
2022,10,02,00,14,15.80
2022,10,02,00,15,15.80
2022,10,02,00,16,15.80
2022,10,02,00,17,15.80
2022,10,02,00,18,15.80
2022,10,02,00,19,15.80
2022,10,02,00,20,15.80
2022,10,02,00,21,15.70
2022,10,02,00,22,15.70
2022,10,02,00,23,15.70
2022,10,02,00,24,15.70
2022,10,02,00,25,15.70
2022,10,02,00,26,15.70
2022,10,02,00,27,15.70
2022,10,02,00,28,15.60
2022,10,02,00,29,15.60
2022,10,02,00,30,15.60
2022,10,02,00,31,15.60
2022,10,02,00,32,15.50
2022,10,02,00,33,15.50
2022,10,02,00,34,15.50
2022,10,02,00,35,15.40
2022,10,02,00,36,15.40
2022,10,02,00,37,15.30
2022,10,02,00,38,15.30
2022,10,02,00,39,15.30
2022,10,02,00,40,15.30
2022,10,02,00,41,15.30
2022,10,02,00,42,15.30
2022,10,02,00,43,15.20
2022,10,02,00,44,15.20
2022,10,02,00,45,15.20
2022,10,02,00,46,15.20
2022,10,02,00,47,15.20
2022,10,02,00,48,15.20
2022,10,02,00,49,15.20
2022,10,02,00,50,15.20
2022,10,02,00,51,15.20
2022,10,02,00,52,15.10
2022,10,02,00,53,15.10
2022,10,02,00,54,15.10
2022,10,02,00,55,15.10
2022,10,02,00,56,15.10
2022,10,02,00,57,15.00
2022,10,02,00,58,15.00
2022,10,02,00,59,15.00
2022,10,02,01,00,15.00
2022,10,02,01,01,15.00
2022,10,02,01,02,15.00
2022,10,02,01,03,15.00
2022,10,02,01,04,15.00
2022,10,02,01,05,15.00
2022,10,02,01,06,15.00
2022,10,02,01,07,15.00
2022,10,02,01,08,15.00
2022,10,02,01,09,15.00
2022,10,02,01,10,15.00
2022,10,02,01,11,15.00
2022,10,02,01,12,15.00
2022,10,02,01,13,15.00
2022,10,02,01,14,15.00
2022,10,02,01,15,15.00
2022,10,02,01,16,15.00
2022,10,02,01,17,15.00
2022,10,02,01,18,15.00
2022,10,02,01,19,15.00
2022,10,02,01,20,15.10
2022,10,02,01,21,15.10
2022,10,02,01,22,15.10
2022,10,02,01,23,15.10
2022,10,02,01,24,15.10
2022,10,02,01,25,15.20
2022,10,02,01,26,15.20
2022,10,02,01,27,15.20
2022,10,02,01,28,15.20
2022,10,02,01,29,15.20
2022,10,02,01,30,15.30
2022,10,02,01,31,15.30
2022,10,02,01,32,15.30
2022,10,02,01,33,15.30
2022,10,02,01,34,15.30
2022,10,02,01,35,15.30
2022,10,02,01,36,15.40
2022,10,02,01,37,15.40
2022,10,02,01,38,15.40
2022,10,02,01,39,15.40
2022,10,02,01,40,15.40
2022,10,02,01,41,15.40
2022,10,02,01,42,15.40
2022,10,02,01,43,15.50
2022,10,02,01,44,15.50
2022,10,02,01,45,15.50
2022,10,02,01,46,15.50
2022,10,02,01,47,15.60
2022,10,02,01,48,15.60
2022,10,02,01,49,15.70
2022,10,02,01,50,15.70
2022,10,02,01,51,15.80
2022,10,02,01,52,15.80
2022,10,02,01,53,15.80
2022,10,02,01,54,15.80
2022,10,02,01,55,15.80
2022,10,02,01,56,15.80
2022,10,02,01,57,15.80
2022,10,02,01,58,15.80
2022,10,02,01,59,15.80
2022,10,02,02,00,15.80
2022,10,02,02,01,15.80
2022,10,02,02,02,15.80
2022,10,02,02,03,15.80
2022,10,02,02,04,15.80
2022,10,02,02,05,15.80
2022,10,02,02,06,15.90
2022,10,02,02,07,15.90
2022,10,02,02,08,15.90
2022,10,02,02,09,15.90
2022,10,02,02,10,15.90
2022,10,02,02,11,15.90
2022,10,02,02,12,15.90
2022,10,02,02,13,15.90
2022,10,02,02,14,15.90
2022,10,02,02,15,15.90
2022,10,02,02,16,15.90
2022,10,02,02,17,15.90
2022,10,02,02,18,15.90
2022,10,02,02,19,15.90
2022,10,02,02,20,15.90
2022,10,02,02,21,15.90
2022,10,02,02,22,15.90
2022,10,02,02,23,15.90
2022,10,02,02,24,15.80
2022,10,02,02,25,15.80
2022,10,02,02,26,15.80
2022,10,02,02,27,15.80
2022,10,02,02,28,15.80
2022,10,02,02,29,15.80
2022,10,02,02,30,15.80
2022,10,02,02,31,15.70
2022,10,02,02,32,15.70
2022,10,02,02,33,15.60
2022,10,02,02,34,15.60
2022,10,02,02,35,15.60
2022,10,02,02,36,15.50
2022,10,02,02,37,15.50
2022,10,02,02,38,15.40
2022,10,02,02,39,15.30
2022,10,02,02,40,15.30
2022,10,02,02,41,15.20
2022,10,02,02,42,15.10
2022,10,02,02,43,15.00
2022,10,02,02,44,14.90
2022,10,02,02,45,14.80
2022,10,02,02,46,14.80
2022,10,02,02,47,14.80
2022,10,02,02,48,14.70
2022,10,02,02,49,14.60
2022,10,02,02,50,14.60
2022,10,02,02,51,14.50
2022,10,02,02,52,14.50
2022,10,02,02,53,14.40
2022,10,02,02,54,14.40
2022,10,02,02,55,14.40
2022,10,02,02,56,14.30
2022,10,02,02,57,14.30
2022,10,02,02,58,14.30
2022,10,02,02,59,14.20
2022,10,02,03,00,14.20
2022,10,02,03,01,14.20
2022,10,02,03,02,14.20
2022,10,02,03,03,14.20
2022,10,02,03,04,14.20
2022,10,02,03,05,14.20
2022,10,02,03,06,14.20
2022,10,02,03,07,14.10
2022,10,02,03,08,14.10
2022,10,02,03,09,14.10
2022,10,02,03,10,14.10
2022,10,02,03,11,14.10
2022,10,02,03,12,14.10
2022,10,02,03,13,14.20
2022,10,02,03,14,14.20
2022,10,02,03,15,14.20
2022,10,02,03,16,14.20
2022,10,02,03,17,14.30
2022,10,02,03,18,14.40
2022,10,02,03,19,14.40
2022,10,02,03,20,14.40
2022,10,02,03,21,14.50
2022,10,02,03,22,14.50
2022,10,02,03,23,14.50
2022,10,02,03,24,14.60
2022,10,02,03,25,14.60
2022,10,02,03,26,14.60
2022,10,02,03,27,14.60
2022,10,02,03,28,14.60
2022,10,02,03,29,14.60
2022,10,02,03,30,14.60
2022,10,02,03,31,14.60
2022,10,02,03,32,14.60
2022,10,02,03,33,14.60
2022,10,02,03,34,14.60
2022,10,02,03,35,14.60
2022,10,02,03,36,14.60
2022,10,02,03,37,14.50
2022,10,02,03,38,14.50
2022,10,02,03,39,14.50
2022,10,02,03,40,14.50
2022,10,02,03,41,14.50
2022,10,02,03,42,14.40
2022,10,02,03,43,14.40
2022,10,02,03,44,14.40
2022,10,02,03,45,14.30
2022,10,02,03,46,14.30
2022,10,02,03,47,14.30
2022,10,02,03,48,14.20
2022,10,02,03,49,14.20
2022,10,02,03,50,14.20
2022,10,02,03,51,14.20
2022,10,02,03,52,14.20
2022,10,02,03,53,14.20
2022,10,02,03,54,14.20
2022,10,02,03,55,14.20
2022,10,02,03,56,14.20
2022,10,02,03,57,14.20
2022,10,02,03,58,14.20
2022,10,02,03,59,14.20
2022,10,02,04,00,14.20
2022,10,02,04,01,14.20
2022,10,02,04,02,14.20
2022,10,02,04,03,14.30
2022,10,02,04,04,14.30
2022,10,02,04,05,14.40
2022,10,02,04,06,14.40
2022,10,02,04,07,14.50
2022,10,02,04,08,14.50
2022,10,02,04,09,14.60
2022,10,02,04,10,14.60
2022,10,02,04,11,14.70
2022,10,02,04,12,14.70
2022,10,02,04,13,14.70
2022,10,02,04,14,14.70
2022,10,02,04,15,14.80
2022,10,02,04,16,14.80
2022,10,02,04,17,14.80
2022,10,02,04,18,14.80
2022,10,02,04,19,14.80
2022,10,02,04,20,14.80
2022,10,02,04,21,14.80
2022,10,02,04,22,14.80
2022,10,02,04,23,14.90
2022,10,02,04,24,14.90
2022,10,02,04,25,14.90
2022,10,02,04,26,14.90
2022,10,02,04,27,15.00
2022,10,02,04,28,15.00
2022,10,02,04,29,15.00
2022,10,02,04,30,15.00
2022,10,02,04,31,15.10
2022,10,02,04,32,15.10
2022,10,02,04,33,15.10
2022,10,02,04,34,15.20
2022,10,02,04,35,15.20
2022,10,02,04,36,15.20
2022,10,02,04,37,15.20
2022,10,02,04,38,15.20
2022,10,02,04,39,15.30
2022,10,02,04,40,15.30
2022,10,02,04,41,15.30
2022,10,02,04,42,15.30
2022,10,02,04,43,15.30
2022,10,02,04,44,15.30
2022,10,02,04,45,15.30
2022,10,02,04,46,15.30
2022,10,02,04,47,15.30
2022,10,02,04,48,15.30
2022,10,02,04,49,15.30
2022,10,02,04,50,15.30
2022,10,02,04,51,15.30
2022,10,02,04,52,15.30
2022,10,02,04,53,15.30
2022,10,02,04,54,15.30
2022,10,02,04,55,15.30
2022,10,02,04,56,15.40
2022,10,02,04,57,15.40
2022,10,02,04,58,15.40
2022,10,02,04,59,15.40
2022,10,02,05,00,15.40
2022,10,02,05,01,15.40
2022,10,02,05,02,15.40
2022,10,02,05,03,15.30
2022,10,02,05,04,15.30
2022,10,02,05,05,15.30
2022,10,02,05,06,15.30
2022,10,02,05,07,15.30
2022,10,02,05,08,15.30
2022,10,02,05,09,15.30
2022,10,02,05,10,15.30
2022,10,02,05,11,15.30
2022,10,02,05,12,15.30
2022,10,02,05,13,15.30
2022,10,02,05,14,15.30
2022,10,02,05,15,15.20
2022,10,02,05,16,15.20
2022,10,02,05,17,15.20
2022,10,02,05,18,15.10
2022,10,02,05,19,15.10
2022,10,02,05,20,15.00
2022,10,02,05,21,15.00
2022,10,02,05,22,15.00
2022,10,02,05,23,14.90
2022,10,02,05,24,14.80
2022,10,02,05,25,14.80
2022,10,02,05,26,14.80
2022,10,02,05,27,14.70
2022,10,02,05,28,14.70
2022,10,02,05,29,14.60
2022,10,02,05,30,14.60
2022,10,02,05,31,14.60
2022,10,02,05,32,14.50
2022,10,02,05,33,14.50
2022,10,02,05,34,14.50
2022,10,02,05,35,14.40
2022,10,02,05,36,14.40
2022,10,02,05,37,14.40
2022,10,02,05,38,14.40
2022,10,02,05,39,14.40
2022,10,02,05,40,14.40
2022,10,02,05,41,14.40
2022,10,02,05,42,14.40
2022,10,02,05,43,14.40
2022,10,02,05,44,14.40
2022,10,02,05,45,14.40
2022,10,02,05,46,14.40
2022,10,02,05,47,14.50
2022,10,02,05,48,14.50
2022,10,02,05,49,14.50
2022,10,02,05,50,14.50
2022,10,02,05,51,14.50
2022,10,02,05,52,14.60
2022,10,02,05,53,14.60
2022,10,02,05,54,14.60
2022,10,02,05,55,14.60
2022,10,02,05,56,14.60
2022,10,02,05,57,14.60
2022,10,02,05,58,14.60
2022,10,02,05,59,14.60
2022,10,02,06,00,14.60
2022,10,02,06,01,14.60
2022,10,02,06,02,14.60
2022,10,02,06,03,14.60
2022,10,02,06,04,14.50
2022,10,02,06,05,14.50
2022,10,02,06,06,14.50
2022,10,02,06,07,14.50
2022,10,02,06,08,14.40
2022,10,02,06,09,14.40
2022,10,02,06,10,14.30
2022,10,02,06,11,14.30
2022,10,02,06,12,14.30
2022,10,02,06,13,14.20
2022,10,02,06,14,14.20
2022,10,02,06,15,14.20
2022,10,02,06,16,14.20
2022,10,02,06,17,14.20
2022,10,02,06,18,14.10
2022,10,02,06,19,14.10
2022,10,02,06,20,14.10
2022,10,02,06,21,14.10
2022,10,02,06,22,14.10
2022,10,02,06,23,14.10
2022,10,02,06,24,14.10
2022,10,02,06,25,14.00
2022,10,02,06,26,14.00
2022,10,02,06,27,14.00
2022,10,02,06,28,14.00
2022,10,02,06,29,14.00
2022,10,02,06,30,14.00
2022,10,02,06,31,14.00
2022,10,02,06,32,14.00
2022,10,02,06,33,14.00
2022,10,02,06,34,14.00
2022,10,02,06,35,14.00
2022,10,02,06,36,14.00
2022,10,02,06,37,14.00
2022,10,02,06,38,14.00
2022,10,02,06,39,14.00
2022,10,02,06,40,14.10
2022,10,02,06,41,14.10
2022,10,02,06,42,14.10
2022,10,02,06,43,14.10
2022,10,02,06,44,14.00
2022,10,02,06,45,14.00
2022,10,02,06,46,14.00
2022,10,02,06,47,14.00
2022,10,02,06,48,14.00
2022,10,02,06,49,14.00
2022,10,02,06,50,14.00
2022,10,02,06,51,14.00
2022,10,02,06,52,14.00
2022,10,02,06,53,14.00
2022,10,02,06,54,14.00
2022,10,02,06,55,14.10
2022,10,02,06,56,14.10
2022,10,02,06,57,14.20
2022,10,02,06,58,14.20
2022,10,02,06,59,14.20
2022,10,02,07,00,14.20
2022,10,02,07,01,14.20
2022,10,02,07,02,14.20
2022,10,02,07,03,14.30
2022,10,02,07,04,14.30
2022,10,02,07,05,14.40
2022,10,02,07,06,14.40
2022,10,02,07,07,14.40
2022,10,02,07,08,14.50
2022,10,02,07,09,14.50
2022,10,02,07,10,14.50
2022,10,02,07,11,14.50
2022,10,02,07,12,14.50
2022,10,02,07,13,14.60
2022,10,02,07,14,14.60
2022,10,02,07,15,14.60
2022,10,02,07,16,14.60
2022,10,02,07,17,14.60
2022,10,02,07,18,14.60
2022,10,02,07,19,14.60
2022,10,02,07,20,14.60
2022,10,02,07,21,14.60
2022,10,02,07,22,14.60
2022,10,02,07,23,14.60
2022,10,02,07,24,14.60
2022,10,02,07,25,14.60
2022,10,02,07,26,14.60
2022,10,02,07,27,14.60
2022,10,02,07,28,14.60
2022,10,02,07,29,14.60
2022,10,02,07,30,14.60
2022,10,02,07,31,14.60
2022,10,02,07,32,14.60
2022,10,02,07,33,14.60
2022,10,02,07,34,14.60
2022,10,02,07,35,14.60
2022,10,02,07,36,14.60
2022,10,02,07,37,14.60
2022,10,02,07,38,14.60
2022,10,02,07,39,14.60
2022,10,02,07,40,14.60
2022,10,02,07,41,14.60
2022,10,02,07,42,14.60
2022,10,02,07,43,14.60
2022,10,02,07,44,14.60
2022,10,02,07,45,14.60
2022,10,02,07,46,14.60
2022,10,02,07,47,14.60
2022,10,02,07,48,14.60
2022,10,02,07,49,14.70
2022,10,02,07,50,14.70
2022,10,02,07,51,14.70
2022,10,02,07,52,14.70
2022,10,02,07,53,14.70
2022,10,02,07,54,14.70
2022,10,02,07,55,14.70
2022,10,02,07,56,14.70
2022,10,02,07,57,14.70
2022,10,02,07,58,14.70
2022,10,02,07,59,14.70
2022,10,02,08,00,14.70
2022,10,02,08,01,14.70
2022,10,02,08,02,14.70
2022,10,02,08,03,14.70
2022,10,02,08,04,14.80
2022,10,02,08,05,14.80
2022,10,02,08,06,14.80
2022,10,02,08,07,14.80
2022,10,02,08,08,14.80
2022,10,02,08,09,14.80
2022,10,02,08,10,14.80
2022,10,02,08,11,14.80
2022,10,02,08,12,14.90
2022,10,02,08,13,14.90
2022,10,02,08,14,14.90
2022,10,02,08,15,14.90
2022,10,02,08,16,14.90
2022,10,02,08,17,14.90
2022,10,02,08,18,15.00
2022,10,02,08,19,15.00
2022,10,02,08,20,15.00
2022,10,02,08,21,15.00
2022,10,02,08,22,15.10
2022,10,02,08,23,15.10
2022,10,02,08,24,15.10
2022,10,02,08,25,15.10
2022,10,02,08,26,15.10
2022,10,02,08,27,15.10
2022,10,02,08,28,15.00
2022,10,02,08,29,15.00
2022,10,02,08,30,15.00
2022,10,02,08,31,15.00
2022,10,02,08,32,15.00
2022,10,02,08,33,15.00
2022,10,02,08,34,15.00
2022,10,02,08,35,15.00
2022,10,02,08,36,15.00
2022,10,02,08,37,15.00
2022,10,02,08,38,15.00
2022,10,02,08,39,15.00
2022,10,02,08,40,15.00
2022,10,02,08,41,15.00
2022,10,02,08,42,15.00
2022,10,02,08,43,15.00
2022,10,02,08,44,15.10
2022,10,02,08,45,15.10
2022,10,02,08,46,15.10
2022,10,02,08,47,15.20
2022,10,02,08,48,15.20
2022,10,02,08,49,15.20
2022,10,02,08,50,15.20
2022,10,02,08,51,15.30
2022,10,02,08,52,15.30
2022,10,02,08,53,15.30
2022,10,02,08,54,15.30
2022,10,02,08,55,15.40
2022,10,02,08,56,15.40
2022,10,02,08,57,15.40
2022,10,02,08,58,15.40
2022,10,02,08,59,15.40
2022,10,02,09,00,15.40
2022,10,02,09,01,15.40
2022,10,02,09,02,15.40
2022,10,02,09,03,15.40
2022,10,02,09,04,15.40
2022,10,02,09,05,15.40
2022,10,02,09,06,15.40
2022,10,02,09,07,15.40
2022,10,02,09,08,15.40
2022,10,02,09,09,15.40
2022,10,02,09,10,15.40
2022,10,02,09,11,15.40
2022,10,02,09,12,15.40
2022,10,02,09,13,15.40
2022,10,02,09,14,15.50
2022,10,02,09,15,15.50
2022,10,02,09,16,15.50
2022,10,02,09,17,15.60
2022,10,02,09,18,15.60
2022,10,02,09,19,15.60
2022,10,02,09,20,15.60
2022,10,02,09,21,15.60
2022,10,02,09,22,15.70
2022,10,02,09,23,15.70
2022,10,02,09,24,15.70
2022,10,02,09,25,15.70
2022,10,02,09,26,15.80
2022,10,02,09,27,15.80
2022,10,02,09,28,15.80
2022,10,02,09,29,15.80
2022,10,02,09,30,15.80
2022,10,02,09,31,15.80
2022,10,02,09,32,15.90
2022,10,02,09,33,15.90
2022,10,02,09,34,15.90
2022,10,02,09,35,16.00
2022,10,02,09,36,16.10
2022,10,02,09,37,16.10
2022,10,02,09,38,16.10
2022,10,02,09,39,16.10
2022,10,02,09,40,16.10
2022,10,02,09,41,16.10
2022,10,02,09,42,16.10
2022,10,02,09,43,16.20
2022,10,02,09,44,16.20
2022,10,02,09,45,16.30
2022,10,02,09,46,16.30
2022,10,02,09,47,16.30
2022,10,02,09,48,16.30
2022,10,02,09,49,16.30
2022,10,02,09,50,16.30
2022,10,02,09,51,16.30
2022,10,02,09,52,16.30
2022,10,02,09,53,16.30
2022,10,02,09,54,16.40
2022,10,02,09,55,16.40
2022,10,02,09,56,16.40
2022,10,02,09,57,16.40
2022,10,02,09,58,16.40
2022,10,02,09,59,16.40
2022,10,02,10,00,16.40
2022,10,02,10,01,16.40
2022,10,02,10,02,16.60
2022,10,02,10,03,16.60
2022,10,02,10,04,16.70
2022,10,02,10,05,16.70
2022,10,02,10,06,16.70
2022,10,02,10,07,16.70
2022,10,02,10,08,16.70
2022,10,02,10,09,16.70
2022,10,02,10,10,16.70
2022,10,02,10,11,16.70
2022,10,02,10,12,16.80
2022,10,02,10,13,16.80
2022,10,02,10,14,16.90
2022,10,02,10,15,16.90
2022,10,02,10,16,16.90
2022,10,02,10,17,16.90
2022,10,02,10,18,16.90
2022,10,02,10,19,16.90
2022,10,02,10,20,17.00
2022,10,02,10,21,17.00
2022,10,02,10,22,17.10
2022,10,02,10,23,17.20
2022,10,02,10,24,17.30
2022,10,02,10,25,17.30
2022,10,02,10,26,17.30
2022,10,02,10,27,17.40
2022,10,02,10,28,17.40
2022,10,02,10,29,17.40
2022,10,02,10,30,17.40
2022,10,02,10,31,17.50
2022,10,02,10,32,17.50
2022,10,02,10,33,17.50
2022,10,02,10,34,17.50
2022,10,02,10,35,17.60
2022,10,02,10,36,17.60
2022,10,02,10,37,17.60
2022,10,02,10,38,17.70
2022,10,02,10,39,17.70
2022,10,02,10,40,17.70
2022,10,02,10,41,17.70
2022,10,02,10,42,17.70
2022,10,02,10,43,17.70
2022,10,02,10,44,17.70
2022,10,02,10,45,17.70
2022,10,02,10,46,17.70
2022,10,02,10,47,17.70
2022,10,02,10,48,17.70
2022,10,02,10,49,17.70
2022,10,02,10,50,17.70
2022,10,02,10,51,17.80
2022,10,02,10,52,17.80
2022,10,02,10,53,17.80
2022,10,02,10,54,17.90
2022,10,02,10,55,17.90
2022,10,02,10,56,17.90
2022,10,02,10,57,17.90
2022,10,02,10,58,17.90
2022,10,02,10,59,17.90
2022,10,02,11,00,17.90
2022,10,02,11,01,17.90
2022,10,02,11,02,17.90
2022,10,02,11,03,17.90
2022,10,02,11,04,17.90
2022,10,02,11,05,17.90
2022,10,02,11,06,17.90
2022,10,02,11,07,17.90
2022,10,02,11,08,17.90
2022,10,02,11,09,17.90
2022,10,02,11,10,17.90
2022,10,02,11,11,17.90
2022,10,02,11,12,17.90
2022,10,02,11,13,17.90
2022,10,02,11,14,17.90
2022,10,02,11,15,17.90
2022,10,02,11,16,18.00
2022,10,02,11,17,18.10
2022,10,02,11,18,18.10
2022,10,02,11,19,18.20
2022,10,02,11,20,18.20
2022,10,02,11,21,18.20
2022,10,02,11,22,18.20
2022,10,02,11,23,18.20
2022,10,02,11,24,18.20
2022,10,02,11,25,18.20
2022,10,02,11,26,18.20
2022,10,02,11,27,18.20
2022,10,02,11,28,18.20
2022,10,02,11,29,18.20
2022,10,02,11,30,18.20
2022,10,02,11,31,18.20
2022,10,02,11,32,18.30
2022,10,02,11,33,18.30
2022,10,02,11,34,18.30
2022,10,02,11,35,18.30
2022,10,02,11,36,18.20
2022,10,02,11,37,18.30
2022,10,02,11,38,18.30
2022,10,02,11,39,18.30
2022,10,02,11,40,18.30
2022,10,02,11,41,18.30
2022,10,02,11,42,18.30
2022,10,02,11,43,18.30
2022,10,02,11,44,18.30
2022,10,02,11,45,18.40
2022,10,02,11,46,18.40
2022,10,02,11,47,18.40
2022,10,02,11,48,18.40
2022,10,02,11,49,18.50
2022,10,02,11,50,18.50
2022,10,02,11,51,18.60
2022,10,02,11,52,18.60
2022,10,02,11,53,18.60
2022,10,02,11,54,18.70
2022,10,02,11,55,18.70
2022,10,02,11,56,18.80
2022,10,02,11,57,18.80
2022,10,02,11,58,18.90
2022,10,02,11,59,18.90
2022,10,02,12,00,19.10
2022,10,02,12,01,19.10
2022,10,02,12,02,19.10
2022,10,02,12,03,19.20
2022,10,02,12,04,19.20
2022,10,02,12,05,19.30
2022,10,02,12,06,19.30
2022,10,02,12,07,19.30
2022,10,02,12,08,19.30
2022,10,02,12,09,19.30
2022,10,02,12,10,19.20
2022,10,02,12,11,19.20
2022,10,02,12,12,19.20
2022,10,02,12,13,19.20
2022,10,02,12,14,19.20
2022,10,02,12,15,19.20
2022,10,02,12,16,19.20
2022,10,02,12,17,19.20
2022,10,02,12,18,19.30
2022,10,02,12,19,19.30
2022,10,02,12,20,19.20
2022,10,02,12,21,19.30
2022,10,02,12,22,19.30
2022,10,02,12,23,19.30
2022,10,02,12,24,19.30
2022,10,02,12,25,19.30
2022,10,02,12,26,19.30
2022,10,02,12,27,19.30
2022,10,02,12,28,19.30
2022,10,02,12,29,19.30
2022,10,02,12,30,19.30
2022,10,02,12,31,19.30
2022,10,02,12,32,19.40
2022,10,02,12,33,19.40
2022,10,02,12,34,19.30
2022,10,02,12,35,19.30
2022,10,02,12,36,19.30
2022,10,02,12,37,19.20
2022,10,02,12,38,19.20
2022,10,02,12,39,19.20
2022,10,02,12,40,19.20
2022,10,02,12,41,19.30
2022,10,02,12,42,19.30
2022,10,02,12,43,19.30
2022,10,02,12,44,19.40
2022,10,02,12,45,19.40
2022,10,02,12,46,19.40
2022,10,02,12,47,19.50
2022,10,02,12,48,19.60
2022,10,02,12,49,19.70
2022,10,02,12,50,19.70
2022,10,02,12,51,19.80
2022,10,02,12,52,19.80
2022,10,02,12,53,19.80
2022,10,02,12,54,19.80
2022,10,02,12,55,19.80
2022,10,02,12,56,19.80
2022,10,02,12,57,19.90
2022,10,02,12,58,19.90
2022,10,02,12,59,20.00
2022,10,02,13,00,20.10
2022,10,02,13,01,20.10
2022,10,02,13,02,20.00
2022,10,02,13,03,19.90
2022,10,02,13,04,19.90
2022,10,02,13,05,19.90
2022,10,02,13,06,19.90
2022,10,02,13,07,19.90
2022,10,02,13,08,19.90
2022,10,02,13,09,19.90
2022,10,02,13,10,19.90
2022,10,02,13,11,19.90
2022,10,02,13,12,20.00
2022,10,02,13,13,20.10
2022,10,02,13,14,20.10
2022,10,02,13,15,20.20
2022,10,02,13,16,20.20
2022,10,02,13,17,20.20
2022,10,02,13,18,20.20
2022,10,02,13,19,20.10
2022,10,02,13,20,20.10
2022,10,02,13,21,20.10
2022,10,02,13,22,20.20
2022,10,02,13,23,20.20
2022,10,02,13,24,20.20
2022,10,02,13,25,20.20
2022,10,02,13,26,20.20
2022,10,02,13,27,20.20
2022,10,02,13,28,20.20
2022,10,02,13,29,20.20
2022,10,02,13,30,20.20
2022,10,02,13,31,20.20
2022,10,02,13,32,20.30
2022,10,02,13,33,20.30
2022,10,02,13,34,20.30
2022,10,02,13,35,20.30
2022,10,02,13,36,20.30
2022,10,02,13,37,20.40
2022,10,02,13,38,20.40
2022,10,02,13,39,20.40
2022,10,02,13,40,20.40
2022,10,02,13,41,20.40
2022,10,02,13,42,20.50
2022,10,02,13,43,20.50
2022,10,02,13,44,20.50
2022,10,02,13,45,20.50
2022,10,02,13,46,20.60
2022,10,02,13,47,20.60
2022,10,02,13,48,20.60
2022,10,02,13,49,20.70
2022,10,02,13,50,20.70
2022,10,02,13,51,20.70
2022,10,02,13,52,20.80
2022,10,02,13,53,20.80
2022,10,02,13,54,20.90
2022,10,02,13,55,21.00
2022,10,02,13,56,21.00
2022,10,02,13,57,21.00
2022,10,02,13,58,21.10
2022,10,02,13,59,21.10
2022,10,02,14,00,21.20
2022,10,02,14,01,21.20
2022,10,02,14,02,21.20
2022,10,02,14,03,21.30
2022,10,02,14,04,21.30
2022,10,02,14,05,21.30
2022,10,02,14,06,21.20
2022,10,02,14,07,21.20
2022,10,02,14,08,21.20
2022,10,02,14,09,21.20
2022,10,02,14,10,21.20
2022,10,02,14,11,21.30
2022,10,02,14,12,21.30
2022,10,02,14,13,21.30
2022,10,02,14,14,21.30
2022,10,02,14,15,21.30
2022,10,02,14,16,21.30
2022,10,02,14,17,21.30
2022,10,02,14,18,21.30
2022,10,02,14,19,21.30
2022,10,02,14,20,21.20
2022,10,02,14,21,21.30
2022,10,02,14,22,21.30
2022,10,02,14,23,21.30
2022,10,02,14,24,21.30
2022,10,02,14,25,21.30
2022,10,02,14,26,21.40
2022,10,02,14,27,21.50
2022,10,02,14,28,21.60
2022,10,02,14,29,21.60
2022,10,02,14,30,21.60
2022,10,02,14,31,21.60
2022,10,02,14,32,21.60
2022,10,02,14,33,21.60
2022,10,02,14,34,21.60
2022,10,02,14,35,21.60
2022,10,02,14,36,21.60
2022,10,02,14,37,21.60
2022,10,02,14,38,21.60
2022,10,02,14,39,21.40
2022,10,02,14,40,21.40
2022,10,02,14,41,21.40
2022,10,02,14,42,21.30
2022,10,02,14,43,21.30
2022,10,02,14,44,21.30
2022,10,02,14,45,21.30
2022,10,02,14,46,21.30
2022,10,02,14,47,21.30
2022,10,02,14,48,21.40
2022,10,02,14,49,21.40
2022,10,02,14,50,21.40
2022,10,02,14,51,21.40
2022,10,02,14,52,21.40
2022,10,02,14,53,21.40
2022,10,02,14,54,21.40
2022,10,02,14,55,21.40
2022,10,02,14,56,21.40
2022,10,02,14,57,21.40
2022,10,02,14,58,21.60
2022,10,02,14,59,21.60
2022,10,02,15,00,21.60
2022,10,02,15,01,21.60
2022,10,02,15,02,21.60
2022,10,02,15,03,21.60
2022,10,02,15,04,21.60
2022,10,02,15,05,21.60
2022,10,02,15,06,21.60
2022,10,02,15,07,21.50
2022,10,02,15,08,21.40
2022,10,02,15,09,21.40
2022,10,02,15,10,21.30
2022,10,02,15,11,21.30
2022,10,02,15,12,21.30
2022,10,02,15,13,21.30
2022,10,02,15,14,21.30
2022,10,02,15,15,21.30
2022,10,02,15,16,21.30
2022,10,02,15,17,21.30
2022,10,02,15,18,21.40
2022,10,02,15,19,21.40
2022,10,02,15,20,21.50
2022,10,02,15,21,21.60
2022,10,02,15,22,21.60
2022,10,02,15,23,21.60
2022,10,02,15,24,21.60
2022,10,02,15,25,21.60
2022,10,02,15,26,21.60
2022,10,02,15,27,21.60
2022,10,02,15,28,21.60
2022,10,02,15,29,21.60
2022,10,02,15,30,21.70
2022,10,02,15,31,21.70
2022,10,02,15,32,21.80
2022,10,02,15,33,21.80
2022,10,02,15,34,21.80
2022,10,02,15,35,21.80
2022,10,02,15,36,21.80
2022,10,02,15,37,21.80
2022,10,02,15,38,21.90
2022,10,02,15,39,21.90
2022,10,02,15,40,22.00
2022,10,02,15,41,22.00
2022,10,02,15,42,22.10
2022,10,02,15,43,22.10
2022,10,02,15,44,22.10
2022,10,02,15,45,22.10
2022,10,02,15,46,22.00
2022,10,02,15,47,22.00
2022,10,02,15,48,22.00
2022,10,02,15,49,22.00
2022,10,02,15,50,22.00
2022,10,02,15,51,22.00
2022,10,02,15,52,21.90
2022,10,02,15,53,21.90
2022,10,02,15,54,21.90
2022,10,02,15,55,21.90
2022,10,02,15,56,21.90
2022,10,02,15,57,22.00
2022,10,02,15,58,22.00
2022,10,02,15,59,22.00
2022,10,02,16,00,22.00
2022,10,02,16,01,22.00
2022,10,02,16,02,22.00
2022,10,02,16,03,22.00
2022,10,02,16,04,22.00
2022,10,02,16,05,22.10
2022,10,02,16,06,22.10
2022,10,02,16,07,22.10
2022,10,02,16,08,22.20
2022,10,02,16,09,22.20
2022,10,02,16,10,22.20
2022,10,02,16,11,22.20
2022,10,02,16,12,22.20
2022,10,02,16,13,22.20
2022,10,02,16,14,22.10
2022,10,02,16,15,22.10
2022,10,02,16,16,22.10
2022,10,02,16,17,22.10
2022,10,02,16,18,22.00
2022,10,02,16,19,22.00
2022,10,02,16,20,22.00
2022,10,02,16,21,22.10
2022,10,02,16,22,22.10
2022,10,02,16,23,22.20
2022,10,02,16,24,22.20
2022,10,02,16,25,22.30
2022,10,02,16,26,22.30
2022,10,02,16,27,22.30
2022,10,02,16,28,22.30
2022,10,02,16,29,22.30
2022,10,02,16,30,22.30
2022,10,02,16,31,22.30
2022,10,02,16,32,22.30
2022,10,02,16,33,22.30
2022,10,02,16,34,22.30
2022,10,02,16,35,22.40
2022,10,02,16,36,22.40
2022,10,02,16,37,22.40
2022,10,02,16,38,22.40
2022,10,02,16,39,22.50
2022,10,02,16,40,22.50
2022,10,02,16,41,22.50
2022,10,02,16,42,22.50
2022,10,02,16,43,22.50
2022,10,02,16,44,22.60
2022,10,02,16,45,22.60
2022,10,02,16,46,22.60
2022,10,02,16,47,22.60
2022,10,02,16,48,22.60
2022,10,02,16,49,22.60
2022,10,02,16,50,22.60
2022,10,02,16,51,22.70
2022,10,02,16,52,22.60
2022,10,02,16,53,22.60
2022,10,02,16,54,22.60
2022,10,02,16,55,22.60
2022,10,02,16,56,22.60
2022,10,02,16,57,22.60
2022,10,02,16,58,22.50
2022,10,02,16,59,22.50
2022,10,02,17,00,22.50
2022,10,02,17,01,22.50
2022,10,02,17,02,22.40
2022,10,02,17,03,22.40
2022,10,02,17,04,22.30
2022,10,02,17,05,22.30
2022,10,02,17,06,22.20
2022,10,02,17,07,22.20
2022,10,02,17,08,22.20
2022,10,02,17,09,22.20
2022,10,02,17,10,22.20
2022,10,02,17,11,22.20
2022,10,02,17,12,22.30
2022,10,02,17,13,22.30
2022,10,02,17,14,22.30
2022,10,02,17,15,22.30
2022,10,02,17,16,22.30
2022,10,02,17,17,22.30
2022,10,02,17,18,22.30
2022,10,02,17,19,22.40